| time (UTC) | temp F | wind direction | speed knots | gust knots | rain 1hr in | rain 24hr in | rain mn in | humidity % | barometer mb |
| 20260506034410 | 66 | 125 | 0.9 | 3.5 | 0.00 | 0.24 | 0.24 | 87 | 1028.8 |
| 20260506033908 | 66 | 172 | 0.9 | 3.5 | 0.00 | 0.24 | 0.24 | 87 | 1028.8 |
| 20260506033407 | 67 | 156 | 0.9 | 3.5 | 0.00 | 0.24 | 0.24 | 85 | 1028.8 |
| 20260506032908 | 67 | 86 | 0.9 | 1.7 | 0.00 | 0.24 | 0.24 | 85 | 1028.6 |
| 20260506032833 | 67 | 132 | 0.9 | 4.3 | 0.00 | 0.24 | 0.24 | 84 | 1028.7 |
| 20260506031909 | 67 | 170 | 1.7 | 4.3 | 0.00 | 0.24 | 0.24 | 85 | 1028.7 |
| 20260506031410 | 68 | 174 | 0.9 | 4.3 | 0.00 | 0.24 | 0.24 | 85 | 1028.7 |
| 20260506031311 | 68 | 207 | 0.9 | 4.3 | 0.00 | 0.24 | 0.24 | 84 | 1028.7 |
| 20260506030407 | 68 | 176 | 0.9 | 5.2 | 0.00 | 0.24 | 0.24 | 85 | 1028.6 |
| 20260506030321 | 68 | 111 | 0.9 | 5.2 | 0.00 | 0.24 | 0.24 | 83 | 1028.7 |
| 20260506025409 | 69 | 217 | 0.9 | 5.2 | 0.00 | 0.24 | 0.24 | 82 | 1028.7 |
| 20260506024909 | 68 | 151 | 1.7 | 6.1 | 0.00 | 0.24 | 0.24 | 84 | 1028.8 |
| 20260506024406 | 68 | 162 | 1.7 | 6.1 | 0.00 | 0.24 | 0.24 | 84 | 1028.7 |
| 20260506023904 | 68 | 167 | 2.6 | 6.1 | 0.00 | 0.24 | 0.24 | 84 | 1028.7 |
| 20260506023404 | 68 | 224 | 1.7 | 6.1 | 0.00 | 0.24 | 0.24 | 85 | 1028.7 |
| 20260506022904 | 68 | 182 | 1.7 | 6.1 | 0.00 | 0.24 | 0.24 | 85 | 1028.7 |
| 20260506022404 | 68 | 163 | 1.7 | 6.1 | 0.00 | 0.24 | 0.24 | 85 | 1028.7 |
| 20260506022313 | 68 | 32 | 1.7 | 6.1 | 0.00 | 0.24 | 0.24 | 86 | 1028.6 |
| 20260506021405 | 68 | 153 | 1.7 | 5.2 | 0.00 | 0.24 | 0.24 | 85 | 1028.6 |
| 20260506021304 | 68 | 185 | 1.7 | 7.0 | 0.00 | 0.24 | 0.24 | 86 | 1028.6 |
| 20260506020802 | 67 | 172 | 1.7 | 7.0 | 0.00 | 0.24 | 0.24 | 85 | 1028.7 |
| 20260506020255 | 67 | 170 | 1.7 | 7.8 | 0.00 | 0.24 | 0.24 | 88 | 1028.7 |
| 20260506015405 | 67 | 103 | 2.6 | 7.8 | 0.00 | 0.24 | 0.24 | 88 | 1028.7 |
| 20260506014903 | 66 | 178 | 2.6 | 8.7 | 0.00 | 0.24 | 0.24 | 87 | 1028.6 |
| 20260506014408 | 66 | 161 | 2.6 | 8.7 | 0.00 | 0.24 | 0.24 | 88 | 1028.7 |
| 20260506014313 | 66 | 135 | 2.6 | 6.1 | 0.00 | 0.24 | 0.24 | 88 | 1028.8 |
| 20260506013403 | 66 | 74 | 2.6 | 7.8 | 0.00 | 0.24 | 0.24 | 89 | 1028.9 |
| 20260506013057 | 66 | 171 | 2.6 | 7.8 | 0.00 | 0.24 | 0.24 | 87 | 1028.8 |
| 20260506012317 | 66 | 178 | 2.6 | 7.0 | 0.00 | 0.24 | 0.24 | 89 | 1029.1 |
| 20260506011403 | 65 | 185 | 2.6 | 7.8 | 0.00 | 0.24 | 0.24 | 91 | 1029.1 |
| 20260506010913 | 65 | 125 | 1.7 | 7.8 | 0.00 | 0.24 | 0.24 | 91 | 1029.1 |
| 20260506010359 | 65 | 191 | 2.6 | 6.1 | 0.00 | 0.24 | 0.24 | 91 | 1029.1 |
| 20260506005857 | 65 | 140 | 1.7 | 5.2 | 0.00 | 0.24 | 0.24 | 90 | 1029.1 |
| 20260506005358 | 65 | 173 | 1.7 | 5.2 | 0.00 | 0.24 | 0.24 | 91 | 1029.2 |
| 20260506004859 | 65 | 138 | 1.7 | 5.2 | 0.00 | 0.24 | 0.24 | 93 | 1029.2 |
| 20260506004744 | 65 | 163 | 1.7 | 5.2 | 0.00 | 0.24 | 0.24 | 92 | 1029.4 |
| 20260506003857 | 64 | 141 | 0.9 | 5.2 | 0.00 | 0.24 | 0.24 | 93 | 1029.4 |
| 20260506003357 | 64 | 186 | 0.9 | 5.2 | 0.00 | 0.24 | 0.24 | 94 | 1029.5 |
| 20260506002855 | 64 | 175 | 0.9 | 3.5 | 0.00 | 0.24 | 0.24 | 94 | 1029.5 |
| 20260506002353 | 64 | 156 | 0.9 | 3.5 | 0.01 | 0.24 | 0.24 | 95 | 1029.6 |
| 20260506002259 | 63 | 167 | 0.9 | 3.5 | 0.01 | 0.24 | 0.24 | 95 | 1029.7 |
| 20260506001352 | 63 | 190 | 0.9 | 4.3 | 0.01 | 0.24 | 0.24 | 96 | 1029.7 |
| 20260506000850 | 63 | 181 | 0.9 | 4.3 | 0.02 | 0.24 | 0.24 | 96 | 1029.9 |
| 20260506000809 | 63 | 199 | 0.9 | 3.5 | 0.03 | 0.24 | 0.24 | 96 | 1030.1 |
| 20260506000254 | 63 | 184 | 0.9 | 2.6 | 0.05 | 0.24 | 0.24 | 96 | 1030.1 |
| 20260505235338 | 63 | 143 | 0.9 | 2.6 | 0.06 | 0.24 | 0.24 | 95 | 1030.0 |
| 20260505234833 | 63 | 229 | 0.0 | 0.9 | 0.06 | 0.24 | 0.24 | 96 | 1030.2 |
| 20260505234512 | 63 | 242 | 0.0 | 0.9 | 0.06 | 0.24 | 0.24 | 96 | 1030.2 |
| 20260505233312 | 62 | 279 | 0.0 | 0.0 | 0.06 | 0.24 | 0.24 | 96 | 1030.3 |
| 20260505232805 | 62 | 279 | 0.0 | 0.0 | 0.06 | 0.24 | 0.24 | 97 | 1030.5 |
| 20260505232720 | 62 | 279 | 0.0 | 0.0 | 0.05 | 0.23 | 0.23 | 96 | 1030.4 |
| 20260505231752 | 62 | 279 | 0.0 | 0.0 | 0.05 | 0.23 | 0.23 | 95 | 1030.6 |
| 20260505231636 | 62 | 279 | 0.0 | 0.0 | 0.04 | 0.22 | 0.22 | 95 | 1030.6 |
| 20260505231145 | 62 | 279 | 0.0 | 0.0 | 0.03 | 0.21 | 0.21 | 95 | 1030.6 |
| 20260505230234 | 62 | 279 | 0.0 | 0.0 | 0.02 | 0.20 | 0.20 | 95 | 1030.6 |
| 20260505225728 | 62 | 279 | 0.0 | 0.0 | 0.01 | 0.19 | 0.19 | 95 | 1030.7 |
| 20260505225635 | 62 | 279 | 0.0 | 0.0 | 0.00 | 0.18 | 0.18 | 95 | 1030.6 |
| 20260505224716 | 62 | 279 | 0.0 | 0.0 | 0.00 | 0.18 | 0.18 | 95 | 1030.6 |
| 20260505224212 | 62 | 279 | 0.0 | 0.0 | 0.00 | 0.18 | 0.18 | 95 | 1030.6 |
| 20260505223703 | 62 | 279 | 0.0 | 0.0 | 0.00 | 0.18 | 0.18 | 95 | 1030.6 |
| 20260505223159 | 62 | 279 | 0.0 | 0.0 | 0.00 | 0.18 | 0.18 | 95 | 1030.7 |
| 20260505222652 | 62 | 279 | 0.0 | 0.0 | 0.00 | 0.18 | 0.18 | 96 | 1030.7 |
| 20260505222146 | 62 | 279 | 0.0 | 0.0 | 0.00 | 0.18 | 0.18 | 95 | 1030.8 |
| 20260505221643 | 62 | 279 | 0.0 | 0.0 | 0.00 | 0.18 | 0.18 | 96 | 1030.9 |
| 20260505221134 | 62 | 279 | 0.0 | 0.0 | 0.00 | 0.18 | 0.18 | 96 | 1030.9 |
| 20260505220628 | 61 | 304 | 0.0 | 0.0 | 0.00 | 0.18 | 0.18 | 97 | 1031.0 |
| 20260505220124 | 61 | 304 | 0.0 | 0.0 | 0.00 | 0.18 | 0.18 | 97 | 1031.1 |
| 20260505215805 | 61 | 304 | 0.0 | 0.0 | 0.00 | 0.18 | 0.18 | 97 | 1030.9 |
| 20260505214604 | 61 | 303 | 0.0 | 0.0 | 0.00 | 0.18 | 0.18 | 98 | 1030.9 |
| 20260505214059 | 61 | 304 | 0.0 | 0.0 | 0.00 | 0.18 | 0.18 | 98 | 1030.9 |
| 20260505213552 | 61 | 303 | 0.0 | 0.0 | 0.00 | 0.18 | 0.18 | 98 | 1031.0 |
| 20260505213444 | 60 | 303 | 0.0 | 0.0 | 0.00 | 0.18 | 0.18 | 98 | 1031.0 |
| 20260505212542 | 60 | 303 | 0.0 | 0.0 | 0.00 | 0.18 | 0.18 | 99 | 1031.0 |
| 20260505212042 | 60 | 303 | 0.0 | 0.0 | 0.00 | 0.18 | 0.18 | 99 | 1031.1 |
| 20260505211544 | 60 | 303 | 0.0 | 0.0 | 0.00 | 0.18 | 0.18 | 99 | 1031.2 |
| 20260505211042 | 60 | 303 | 0.0 | 0.0 | 0.00 | 0.18 | 0.18 | 100 | 1031.2 |
| 20260505210545 | 60 | 304 | 0.0 | 0.0 | 0.00 | 0.18 | 0.18 | 100 | 1031.2 |
| 20260505210043 | 59 | 304 | 0.0 | 0.0 | 0.00 | 0.18 | 0.18 | 100 | 1031.2 |
| 20260505205537 | 59 | 310 | 0.0 | 0.0 | 0.00 | 0.18 | 0.18 | 100 | 1031.2 |
| 20260505205459 | 58 | 310 | 0.0 | 0.0 | 0.00 | 0.18 | 0.18 | 100 | 1031.1 |
| 20260505204535 | 58 | 310 | 0.0 | 0.0 | 0.00 | 0.18 | 0.18 | 100 | 1031.1 |
| 20260505204035 | 58 | 310 | 0.0 | 0.0 | 0.00 | 0.18 | 0.18 | 100 | 1031.2 |
| 20260505203925 | 58 | 310 | 0.0 | 0.0 | 0.00 | 0.18 | 0.18 | 100 | 1031.3 |
| 20260505203032 | 58 | 310 | 0.0 | 0.0 | 0.00 | 0.18 | 0.18 | 100 | 1031.2 |
| 20260505202925 | 58 | 310 | 0.0 | 0.0 | 0.00 | 0.18 | 0.18 | 100 | 1031.2 |
| 20260505202033 | 57 | 310 | 0.0 | 0.0 | 0.00 | 0.18 | 0.18 | 100 | 1031.2 |
| 20260505201532 | 57 | 310 | 0.0 | 0.0 | 0.00 | 0.18 | 0.18 | 100 | 1031.2 |
| 20260505201031 | 57 | 310 | 0.0 | 0.0 | 0.00 | 0.18 | 0.18 | 100 | 1031.2 |
| 20260505200925 | 57 | 310 | 0.0 | 0.0 | 0.00 | 0.18 | 0.18 | 100 | 1031.1 |
| 20260505200034 | 57 | 310 | 0.0 | 0.0 | 0.00 | 0.18 | 0.18 | 100 | 1031.0 |
| 20260505195529 | 56 | 310 | 0.0 | 0.0 | 0.00 | 0.18 | 0.18 | 100 | 1031.0 |
| 20260505195446 | 56 | 310 | 0.0 | 0.0 | 0.00 | 0.18 | 0.18 | 100 | 1030.9 |
| 20260505194526 | 56 | 310 | 0.0 | 0.0 | 0.00 | 0.18 | 0.18 | 100 | 1030.8 |
| 20260505194023 | 56 | 310 | 0.0 | 0.0 | 0.01 | 0.18 | 0.18 | 100 | 1030.8 |
| 20260505193520 | 56 | 310 | 0.0 | 0.0 | 0.01 | 0.18 | 0.18 | 100 | 1030.8 |
| 20260505193431 | 56 | 310 | 0.0 | 0.0 | 0.01 | 0.18 | 0.18 | 100 | 1030.7 |
| 20260505192522 | 56 | 310 | 0.0 | 0.0 | 0.01 | 0.18 | 0.18 | 100 | 1030.7 |
| 20260505192020 | 56 | 310 | 0.0 | 0.0 | 0.02 | 0.18 | 0.18 | 100 | 1030.7 |
| 20260505191913 | 56 | 310 | 0.0 | 0.0 | 0.02 | 0.18 | 0.18 | 100 | 1030.6 |
| 20260505191018 | 56 | 310 | 0.0 | 0.0 | 0.02 | 0.18 | 0.18 | 100 | 1030.6 |
| 20260505190517 | 56 | 310 | 0.0 | 0.0 | 0.02 | 0.18 | 0.18 | 100 | 1030.5 |
| 20260505190425 | 56 | 310 | 0.0 | 0.0 | 0.02 | 0.18 | 0.18 | 100 | 1030.5 |
| 20260505185516 | 56 | 310 | 0.0 | 0.0 | 0.02 | 0.18 | 0.18 | 100 | 1030.5 |
| 20260505185015 | 56 | 310 | 0.0 | 0.0 | 0.02 | 0.18 | 0.18 | 100 | 1030.6 |
| 20260505184515 | 56 | 310 | 0.0 | 0.0 | 0.03 | 0.18 | 0.18 | 100 | 1030.6 |
| 20260505184015 | 56 | 310 | 0.0 | 0.0 | 0.02 | 0.17 | 0.18 | 100 | 1030.5 |
| 20260505183902 | 56 | 310 | 0.0 | 0.0 | 0.04 | 0.17 | 0.17 | 100 | 1030.7 |
| 20260505183015 | 56 | 310 | 0.0 | 0.0 | 0.04 | 0.17 | 0.17 | 100 | 1030.6 |
| 20260505182515 | 56 | 310 | 0.0 | 0.0 | 0.05 | 0.17 | 0.17 | 100 | 1030.6 |
| 20260505182021 | 56 | 310 | 0.0 | 0.0 | 0.04 | 0.17 | 0.17 | 100 | 1030.7 |
| 20260505181856 | 56 | 310 | 0.0 | 0.0 | 0.04 | 0.17 | 0.17 | 100 | 1030.5 |
| 20260505181022 | 56 | 310 | 0.0 | 0.9 | 0.04 | 0.17 | 0.17 | 100 | 1030.5 |
| 20260505180521 | 56 | 310 | 0.0 | 0.9 | 0.04 | 0.17 | 0.17 | 100 | 1030.7 |
| 20260505180019 | 56 | 292 | 0.0 | 0.0 | 0.05 | 0.17 | 0.17 | 100 | 1030.6 |
| 20260505175521 | 56 | 291 | 0.0 | 0.0 | 0.06 | 0.17 | 0.17 | 99 | 1030.5 |
| 20260505175443 | 56 | 291 | 0.0 | 0.0 | 0.06 | 0.16 | 0.16 | 100 | 1030.4 |
| 20260505174512 | 56 | 291 | 0.0 | 0.0 | 0.06 | 0.15 | 0.15 | 99 | 1030.5 |
| 20260505174011 | 56 | 291 | 0.0 | 0.0 | 0.06 | 0.15 | 0.15 | 99 | 1030.4 |
| 20260505173508 | 56 | 291 | 0.0 | 0.9 | 0.04 | 0.13 | 0.14 | 99 | 1030.6 |
| 20260505173007 | 56 | 291 | 0.0 | 0.9 | 0.04 | 0.13 | 0.13 | 99 | 1030.6 |
| 20260505172506 | 56 | 291 | 0.0 | 0.9 | 0.03 | 0.13 | 0.13 | 99 | 1030.5 |
| 20260505172008 | 56 | 291 | 0.0 | 0.9 | 0.03 | 0.13 | 0.13 | 99 | 1030.5 |
| 20260505171505 | 55 | 291 | 0.0 | 0.0 | 0.03 | 0.13 | 0.13 | 99 | 1030.5 |
| 20260505171005 | 55 | 291 | 0.0 | 0.0 | 0.03 | 0.13 | 0.13 | 99 | 1030.5 |
| 20260505170504 | 55 | 289 | 0.0 | 0.0 | 0.03 | 0.13 | 0.13 | 99 | 1030.6 |
| 20260505170009 | 55 | 289 | 0.0 | 0.0 | 0.02 | 0.12 | 0.12 | 99 | 1030.5 |
| 20260505165505 | 55 | 289 | 0.0 | 0.0 | 0.01 | 0.10 | 0.11 | 99 | 1030.5 |
| 20260505165005 | 55 | 289 | 0.0 | 0.0 | 0.00 | 0.09 | 0.09 | 99 | 1030.4 |
| 20260505164722 | 55 | 289 | 0.0 | 0.0 | 0.00 | 0.09 | 0.09 | 99 | 1030.4 |
| 20260505163955 | 55 | 289 | 0.0 | 0.9 | 0.00 | 0.09 | 0.09 | 99 | 1030.4 |
| 20260505163450 | 55 | 289 | 0.0 | 0.9 | 0.00 | 0.09 | 0.09 | 99 | 1030.3 |
| 20260505162943 | 55 | 330 | 0.0 | 0.0 | 0.00 | 0.09 | 0.09 | 99 | 1030.3 |
| 20260505162437 | 55 | 331 | 0.0 | 0.0 | 0.00 | 0.09 | 0.09 | 99 | 1030.4 |
| 20260505161934 | 55 | 331 | 0.0 | 0.0 | 0.00 | 0.09 | 0.09 | 99 | 1030.3 |
| 20260505161425 | 55 | 331 | 0.0 | 0.0 | 0.00 | 0.09 | 0.09 | 99 | 1030.3 |
| 20260505160920 | 55 | 331 | 0.0 | 0.0 | 0.00 | 0.09 | 0.09 | 99 | 1030.3 |
| 20260505160413 | 55 | 331 | 0.0 | 0.0 | 0.00 | 0.09 | 0.09 | 99 | 1030.3 |
| 20260505160245 | 55 | 331 | 0.0 | 0.0 | 0.00 | 0.09 | 0.09 | 99 | 1030.4 |
| 20260505153338 | 55 | 331 | 0.0 | 0.9 | 0.00 | 0.09 | 0.09 | 99 | 1030.5 |
| 20260505152832 | 55 | 331 | 0.0 | 0.9 | 0.00 | 0.09 | 0.09 | 99 | 1030.6 |
| 20260505152326 | 55 | 343 | 0.0 | 0.0 | 0.00 | 0.09 | 0.09 | 99 | 1030.7 |
| 20260505151820 | 55 | 343 | 0.0 | 0.9 | 0.01 | 0.09 | 0.09 | 99 | 1030.7 |
| 20260505151654 | 55 | 343 | 0.0 | 0.9 | 0.01 | 0.09 | 0.09 | 99 | 1030.7 |
| 20260505150808 | 55 | 332 | 0.0 | 0.0 | 0.01 | 0.09 | 0.09 | 99 | 1030.8 |
| 20260505150310 | 55 | 333 | 0.0 | 0.0 | 0.01 | 0.09 | 0.09 | 99 | 1030.9 |
| 20260505140205 | 56 | 326 | 0.0 | 0.0 | 0.06 | 0.09 | 0.09 | 99 | 1031.5 |
| 20260505130203 | 55 | 288 | 0.0 | 0.0 | 0.02 | 0.02 | 0.02 | 99 | 1032.0 |
| 20260505124702 | 55 | 307 | 0.0 | 0.0 | 0.02 | 0.02 | 0.02 | 99 | 1032.0 |
| 20260505124200 | 55 | 307 | 0.0 | 0.0 | 0.02 | 0.02 | 0.02 | 99 | 1032.1 |
| 20260505123658 | 55 | 307 | 0.0 | 0.0 | 0.00 | 0.00 | 0.01 | 99 | 1032.1 |
| 20260505123206 | 55 | 307 | 0.0 | 0.0 | 0.00 | 0.00 | 0.00 | 99 | 1032.1 |
| 20260505122657 | 55 | 307 | 0.0 | 0.0 | 0.00 | 0.00 | 0.00 | 99 | 1032.2 |
| 20260505122154 | 55 | 307 | 0.0 | 0.0 | 0.00 | 0.00 | 0.00 | 99 | 1032.1 |
| 20260505121700 | 55 | 307 | 0.0 | 0.0 | 0.00 | 0.00 | 0.00 | 99 | 1032.1 |
| 20260505121152 | 55 | 307 | 0.0 | 0.0 | 0.00 | 0.00 | 0.00 | 99 | 1032.2 |
| 20260505120653 | 55 | 306 | 0.0 | 0.0 | 0.00 | 0.00 | 0.00 | 99 | 1032.1 |
| 20260505120154 | 54 | 306 | 0.0 | 0.0 | 0.00 | 0.00 | 0.00 | 99 | 1032.1 |
| 20260505115649 | 55 | 306 | 0.0 | 0.0 | 0.00 | 0.00 | 0.00 | 99 | 1032.1 |
| 20260505115142 | 54 | 306 | 0.0 | 0.0 | 0.00 | 0.00 | 0.00 | 99 | 1032.0 |
| 20260505114636 | 54 | 306 | 0.0 | 0.0 | 0.00 | 0.00 | 0.00 | 99 | 1032.0 |
| 20260505114530 | 54 | 306 | 0.0 | 0.0 | 0.00 | 0.00 | 0.00 | 99 | 1032.1 |
| 20260505113624 | 54 | 307 | 0.0 | 0.0 | 0.00 | 0.00 | 0.00 | 99 | 1032.1 |
| 20260505113118 | 54 | 307 | 0.0 | 0.0 | 0.00 | 0.00 | 0.00 | 98 | 1032.3 |
| 20260505112614 | 54 | 307 | 0.0 | 0.0 | 0.00 | 0.00 | 0.00 | 99 | 1032.3 |
| 20260505112106 | 54 | 306 | 0.0 | 0.0 | 0.00 | 0.00 | 0.00 | 99 | 1032.4 |
| 20260505111606 | 53 | 307 | 0.0 | 0.0 | 0.00 | 0.00 | 0.00 | 99 | 1032.4 |
| 20260505111055 | 53 | 307 | 0.0 | 0.0 | 0.00 | 0.00 | 0.00 | 99 | 1032.4 |
| 20260505110600 | 53 | 307 | 0.0 | 0.0 | 0.00 | 0.00 | 0.00 | 99 | 1032.3 |
| 20260505101954 | 52 | 307 | 0.0 | 0.0 | 0.00 | 0.00 | 0.00 | 97 | 1032.5 |
| 20260505101902 | 52 | 307 | 0.0 | 0.0 | 0.00 | 0.00 | 0.00 | 97 | 1032.5 |
| 20260505100942 | 52 | 307 | 0.0 | 0.0 | 0.00 | 0.00 | 0.00 | 97 | 1032.5 |
| 20260505100436 | 52 | 307 | 0.0 | 0.0 | 0.00 | 0.00 | 0.00 | 96 | 1032.6 |
| 20260505095932 | 53 | 307 | 0.0 | 0.0 | 0.00 | 0.00 | 0.00 | 96 | 1032.5 |
| 20260505095821 | 53 | 307 | 0.0 | 0.0 | 0.00 | 0.00 | 0.00 | 96 | 1032.6 |
| 20260505095108 | 54 | 307 | 0.0 | 0.0 | 0.00 | 0.00 | 0.00 | 96 | 1032.5 |
| 20260505093922 | 55 | 307 | 0.0 | 0.0 | 0.00 | 0.00 | 0.00 | 96 | 1032.5 |
| 20260505093422 | 55 | 307 | 0.0 | 0.0 | 0.00 | 0.00 | 0.00 | 97 | 1032.5 |
| 20260505092922 | 56 | 307 | 0.0 | 0.0 | 0.00 | 0.00 | 0.00 | 96 | 1032.5 |
| 20260505092417 | 56 | 307 | 0.0 | 0.0 | 0.00 | 0.00 | 0.00 | 96 | 1032.3 |
| 20260505091917 | 56 | 307 | 0.0 | 0.0 | 0.00 | 0.00 | 0.00 | 97 | 1032.4 |
| 20260505091416 | 56 | 307 | 0.0 | 0.0 | 0.00 | 0.00 | 0.00 | 97 | 1032.4 |
| 20260505090914 | 56 | 306 | 0.0 | 0.0 | 0.00 | 0.00 | 0.00 | 97 | 1032.5 |
| 20260505090414 | 56 | 307 | 0.0 | 0.0 | 0.00 | 0.00 | 0.00 | 96 | 1032.5 |
| 20260505090309 | 56 | 307 | 0.0 | 0.0 | 0.00 | 0.00 | 0.00 | 96 | 1032.6 |
| 20260505085414 | 56 | 307 | 0.0 | 0.0 | 0.00 | 0.00 | 0.00 | 96 | 1032.4 |
| 20260505084912 | 56 | 307 | 0.0 | 0.0 | 0.00 | 0.00 | 0.00 | 96 | 1032.5 |
| 20260505084412 | 57 | 307 | 0.0 | 0.0 | 0.00 | 0.00 | 0.00 | 96 | 1032.5 |
| 20260505083913 | 57 | 307 | 0.0 | 0.0 | 0.00 | 0.00 | 0.00 | 96 | 1032.4 |
| 20260505083412 | 57 | 307 | 0.0 | 0.0 | 0.00 | 0.00 | 0.00 | 96 | 1032.4 |
| 20260505082911 | 57 | 307 | 0.0 | 0.0 | 0.00 | 0.00 | 0.00 | 96 | 1032.4 |
| 20260505082413 | 57 | 307 | 0.0 | 0.0 | 0.00 | 0.00 | 0.00 | 96 | 1032.4 |
| 20260505081912 | 57 | 307 | 0.0 | 0.0 | 0.00 | 0.00 | 0.00 | 96 | 1032.4 |
| 20260505081413 | 57 | 306 | 0.0 | 0.0 | 0.00 | 0.00 | 0.00 | 96 | 1032.4 |
| 20260505080910 | 57 | 307 | 0.0 | 0.0 | 0.00 | 0.00 | 0.00 | 96 | 1032.4 |
| 20260505080418 | 57 | 307 | 0.0 | 0.0 | 0.00 | 0.00 | 0.00 | 96 | 1032.4 |
| 20260505075916 | 58 | 307 | 0.0 | 0.0 | 0.00 | 0.00 | 0.00 | 96 | 1032.5 |
| 20260505075752 | 58 | 307 | 0.0 | 0.0 | 0.00 | 0.00 | 0.00 | 96 | 1032.3 |
| 20260505074908 | 58 | 307 | 0.0 | 0.0 | 0.00 | 0.00 | 0.00 | 95 | 1032.3 |
| 20260505074547 | 58 | 306 | 0.0 | 0.0 | 0.00 | 0.00 | 0.00 | 95 | 1032.4 |
| 20260505073409 | 58 | 307 | 0.0 | 0.0 | 0.00 | 0.00 | 0.00 | 95 | 1032.3 |
| 20260505073255 | 58 | 307 | 0.0 | 0.0 | 0.00 | 0.00 | 0.00 | 95 | 1032.4 |
| 20260505072408 | 58 | 307 | 0.0 | 0.0 | 0.00 | 0.00 | 0.00 | 95 | 1032.4 |
| 20260505071913 | 58 | 307 | 0.0 | 0.0 | 0.00 | 0.00 | 0.00 | 95 | 1032.3 |
| 20260505071408 | 58 | 307 | 0.0 | 0.0 | 0.00 | 0.00 | 0.00 | 95 | 1032.3 |
| 20260505070909 | 58 | 307 | 0.0 | 0.0 | 0.00 | 0.00 | 0.00 | 95 | 1032.3 |
| 20260505070742 | 58 | 307 | 0.0 | 0.0 | 0.00 | 0.00 | 0.00 | 95 | 1032.2 |
| 20260505065859 | 58 | 307 | 0.0 | 0.0 | 0.00 | 0.00 | 0.00 | 95 | 1032.2 |
| 20260505065354 | 59 | 307 | 0.0 | 0.0 | 0.00 | 0.00 | 0.00 | 95 | 1032.3 |
| 20260505064847 | 59 | 307 | 0.0 | 0.0 | 0.00 | 0.00 | 0.00 | 95 | 1032.2 |
| 20260505064342 | 59 | 307 | 0.0 | 0.0 | 0.00 | 0.00 | 0.00 | 95 | 1032.2 |
| 20260505063835 | 59 | 307 | 0.0 | 0.0 | 0.00 | 0.00 | 0.00 | 95 | 1032.2 |
| 20260505063329 | 59 | 307 | 0.0 | 0.0 | 0.00 | 0.00 | 0.00 | 95 | 1032.2 |
| 20260505062823 | 59 | 307 | 0.0 | 0.0 | 0.00 | 0.00 | 0.00 | 95 | 1032.3 |
| 20260505062322 | 59 | 307 | 0.0 | 0.0 | 0.00 | 0.00 | 0.00 | 94 | 1032.1 |
| 20260505061812 | 59 | 307 | 0.0 | 0.0 | 0.00 | 0.00 | 0.00 | 94 | 1032.2 |
| 20260505061305 | 59 | 307 | 0.0 | 0.0 | 0.00 | 0.00 | 0.00 | 94 | 1032.2 |
| 20260505060800 | 59 | 307 | 0.0 | 0.0 | 0.00 | 0.00 | 0.00 | 93 | 1032.1 |
| 20260505060253 | 60 | 307 | 0.0 | 0.0 | 0.00 | 0.00 | 0.00 | 93 | 1032.1 |
| 20260505055747 | 60 | 307 | 0.0 | 0.0 | 0.00 | 0.00 | 0.00 | 93 | 1032.0 |
| 20260505055242 | 60 | 307 | 0.0 | 0.0 | 0.00 | 0.00 | 0.00 | 93 | 1032.0 |
| 20260505054735 | 60 | 307 | 0.0 | 0.0 | 0.00 | 0.00 | 0.00 | 93 | 1032.0 |
| 20260505054229 | 61 | 307 | 0.0 | 0.0 | 0.00 | 0.00 | 0.00 | 92 | 1031.9 |
| 20260505053723 | 61 | 307 | 0.0 | 0.0 | 0.00 | 0.00 | 0.00 | 92 | 1031.9 |
| 20260505053217 | 61 | 307 | 0.0 | 0.0 | 0.00 | 0.00 | 0.00 | 92 | 1031.9 |
| 20260505052711 | 61 | 307 | 0.0 | 0.0 | 0.00 | 0.00 | 0.00 | 92 | 1031.8 |
| 20260505052204 | 61 | 307 | 0.0 | 0.0 | 0.00 | 0.00 | 0.00 | 91 | 1031.8 |
| 20260505051659 | 62 | 308 | 0.0 | 0.0 | 0.00 | 0.00 | 0.00 | 91 | 1031.7 |
| 20260505051153 | 62 | 308 | 0.0 | 0.0 | 0.00 | 0.00 | 0.00 | 91 | 1031.8 |
| 20260505051043 | 62 | 308 | 0.0 | 0.0 | 0.00 | 0.00 | 0.00 | 90 | 1031.6 |
| 20260505050142 | 63 | 308 | 0.0 | 0.0 | 0.00 | 0.00 | 0.00 | 90 | 1031.7 |
| 20260505041547 | 66 | 309 | 0.0 | 0.0 | 0.00 | 0.00 | 0.00 | 85 | 1031.8 |
| 20260505041042 | 66 | 309 | 0.0 | 0.0 | 0.00 | 0.00 | 0.00 | 85 | 1031.8 |
| 20260505040911 | 66 | 309 | 0.0 | 0.0 | 0.00 | 0.00 | 0.00 | 84 | 1031.8 |
| 20260505040030 | 67 | 309 | 0.0 | 0.0 | 0.00 | 0.00 | 0.00 | 83 | 1031.8 |
| 20260505035526 | 67 | 309 | 0.0 | 0.0 | 0.00 | 0.00 | 0.00 | 82 | 1031.9 |
| 20260505035025 | 67 | 309 | 0.0 | 0.0 | 0.00 | 0.00 | 0.00 | 80 | 1031.9 |